Waarnemingen

Advertentie
Mijn weer
Bournemouth Airport, Groot Brittannië (3862): temperatuur & dauwpunt: 14.07.2018 21:00:00 - 20.07.2018 21:00:00 (BST)Bournemouth Airport, Groot Brittannië (3862): temperatuur -20cm & temperatuur -100cm: 14.07.2018 21:00:00 - 20.07.2018 21:00:00 (BST)Bournemouth Airport, Groot Brittannië (3862): windsnelheid: 14.07.2018 21:00:00 - 20.07.2018 21:00:00 (BST)Bournemouth Airport, Groot Brittannië (3862): windrichting: 14.07.2018 21:00:00 - 20.07.2018 21:00:00 (BST)Bournemouth Airport, Groot Brittannië (3862): luchtdruk: 14.07.2018 21:00:00 - 20.07.2018 21:00:00 (BST)Bournemouth Airport, Groot Brittannië (3862): zicht: 14.07.2018 21:00:00 - 20.07.2018 21:00:00 (BST)Bournemouth Airport, Groot Brittannië (3862): Zonneschijnduur: 14.07.2018 21:00:00 - 20.07.2018 21:00:00 (BST)Bournemouth Airport, Groot Brittannië (3862): neerslag: 14.07.2018 21:00:00 - 20.07.2018 21:00:00 (BST)
Datum & Tijd tt [°C] td [°C] tt -20cm [°C] tt -100cm [°C] ff [km/u] ff [kn] dd ppp [hPa] vv [km] sd [min] rr [mm]
20.07.2018 21:00:00 19,0 16,0 - - 8 4 ZZO - 10 - 0,0
20.07.2018 20:00:00 19,5 15,6 - - 13 7 ZO 1013,0 10 0 0,0
20.07.2018 19:00:00 20,0 15,3 - - 18 10 ZO 1012,9 10 6 0,0
20.07.2018 18:00:00 20,9 16,0 - - 21 11 ZZO 1013,2 10 42 0,0
20.07.2018 17:00:00 21,4 16,2 - - 21 11 ZZO 1013,2 10 30 0,0
20.07.2018 16:00:00 22,0 15,7 - - 18 10 ZO 1013,3 10 6 0,0
20.07.2018 15:00:00 23,4 16,0 - - 21 11 ZZO 1013,4 10 24 0,0
20.07.2018 14:00:00 23,8 15,9 - - 8 4 NNO 1013,4 10 6 0,0
20.07.2018 13:00:00 25,9 15,5 - - 11 6 NO 1013,7 10 12 0,0
20.07.2018 12:00:00 23,2 13,0 - - 15 8 NNW 1014,2 10 36 0,0
20.07.2018 11:00:00 22,0 12,5 - - 13 7 N 1014,5 10 18 0,0
20.07.2018 10:00:00 20,7 12,3 21,0 18,4 13 7 N 1014,8 10 18 0,0
20.07.2018 09:00:00 18,4 12,6 - - 9 5 N 1014,8 10 0 0,0
20.07.2018 08:00:00 17,0 13,0 - - 5 3 NNW 1014,7 10 0 0,0
20.07.2018 07:00:00 15,2 12,7 - - 5 3 - 1014,9 10 0 0,0
20.07.2018 06:00:00 14,2 12,0 - - 4 2 N 1014,9 10 0 0,0
20.07.2018 05:00:00 14,4 12,3 - - 9 5 NW 1015,0 17 0 0,0
20.07.2018 04:00:00 14,0 12,2 - - 8 4 NNW 1015,7 23 0 0,0
20.07.2018 03:00:00 13,5 11,5 - - 4 2 WNW 1016,0 22 0 0,0
20.07.2018 02:00:00 14,8 11,6 - - 2 1 W 1016,4 21 0 0,0
20.07.2018 01:00:00 16,0 11,8 - - 4 2 WZW 1016,8 23 - 0,0
20.07.2018 00:00:00 17,6 12,1 - - 8 4 NW 1017,0 23 0 0,0
19.07.2018 23:00:00 18,9 12,6 - - 11 6 NW 1016,7 10 0 0,0
19.07.2018 22:00:00 19,6 10,9 - - 9 5 W 1016,7 10 0 0,0
19.07.2018 21:00:00 23,1 10,9 - - 5 3 Z 1016,7 10 0 0,0
19.07.2018 20:00:00 23,2 10,8 - - 8 4 ZZW 1016,7 10 12 0,0
19.07.2018 19:00:00 23,5 11,9 - - 8 4 ZZW 1016,7 10 24 0,0
19.07.2018 18:00:00 23,7 12,0 - - 9 5 Z 1016,9 10 12 0,0
19.07.2018 17:00:00 23,1 12,2 - - 15 8 Z 1017,3 10 0 0,0
19.07.2018 16:00:00 23,7 13,5 - - 15 8 Z 1017,5 10 18 0,0
19.07.2018 15:00:00 26,4 11,2 - - 15 8 Z 1017,4 10 42 0,0
19.07.2018 14:00:00 26,2 12,4 - - 15 8 ZZO 1017,7 10 48 0,0
19.07.2018 13:00:00 25,0 12,2 - - 5 3 - 1018,2 10 30 0,0
19.07.2018 12:00:00 24,3 12,0 - - 5 3 - 1018,4 10 36 0,0
19.07.2018 11:00:00 22,7 11,9 - - 9 5 NNW 1018,7 10 18 0,0
19.07.2018 10:00:00 22,0 12,3 20,9 18,5 5 3 - 1019,0 10 36 0,0
19.07.2018 09:00:00 18,2 12,2 - - 4 2 - 1019,3 10 30 0,0
19.07.2018 08:00:00 15,5 11,5 - - 8 4 N 1019,3 10 54 0,0
19.07.2018 07:00:00 12,1 11,0 - - 4 2 NNO 1019,4 10 0 0,0
19.07.2018 06:00:00 10,3 9,0 - - 5 3 N 1019,4 10 0 0,0
19.07.2018 05:00:00 10,1 9,0 - - 4 2 NNW 1019,3 18 0 0,0
19.07.2018 04:00:00 10,3 8,9 - - 5 3 N 1019,3 18 0 0,0
19.07.2018 03:00:00 10,3 8,3 - - 5 3 N 1019,4 24 0 0,0
19.07.2018 02:00:00 11,2 9,0 - - 2 1 N 1019,6 15 0 0,0
19.07.2018 01:00:00 11,7 8,6 - - 2 1 NW 1019,6 28 - 0,0
19.07.2018 00:00:00 12,5 9,3 - - 4 2 N 1019,2 10 0 0,0
18.07.2018 23:00:00 14,4 9,6 - - 2 1 W 1019,1 10 0 0,0
18.07.2018 22:00:00 17,2 9,8 - - 8 4 NW 1018,9 10 0 0,0
18.07.2018 21:00:00 19,0 9,9 - - 9 5 W 1018,7 10 0 0,0
18.07.2018 20:00:00 21,4 9,8 - - 13 7 W 1018,6 10 30 0,0
18.07.2018 19:00:00 22,2 10,3 - - 11 6 - 1018,4 10 54 0,0
18.07.2018 18:00:00 23,2 10,3 - - 11 6 - 1018,5 10 54 0,0
18.07.2018 17:00:00 23,4 11,2 - - 13 7 WZW 1018,5 10 24 0,0
18.07.2018 16:00:00 21,5 12,0 - - 16 9 ZZW 1018,7 10 30 0,0
18.07.2018 15:00:00 21,5 12,1 - - 16 9 Z 1018,8 10 0 0,0
18.07.2018 14:00:00 20,7 12,9 - - 16 9 Z 1018,7 10 0 0,0
18.07.2018 13:00:00 20,0 12,7 - - 16 9 Z 1018,8 10 0 0,0
18.07.2018 12:00:00 21,2 12,9 - - 13 7 ZZW 1018,7 10 6 0,0
18.07.2018 11:00:00 20,9 14,1 - - 15 8 ZZW 1018,9 10 36 0,0
18.07.2018 10:00:00 19,6 13,8 21,7 18,4 9 5 ZW 1018,9 10 30 0,0
18.07.2018 09:00:00 18,9 14,3 - - 8 4 ZZW 1018,9 10 54 0,0
18.07.2018 08:00:00 14,2 14,0 - - 4 2 NNO 1018,8 10 24 0,0
18.07.2018 07:00:00 11,9 11,7 - - 2 1 - 1018,4 1,0 0 0,0
18.07.2018 06:00:00 9,8 9,4 - - 4 2 N 1018,2 0,2 0 0,0
18.07.2018 05:00:00 9,8 8,8 - - 4 2 NO 1018,0 12 0 0,0
18.07.2018 04:00:00 10,5 9,6 - - 5 3 ONO 1017,9 16 0 0,0
18.07.2018 03:00:00 11,5 10,5 - - 5 3 NO 1018,1 18 0 0,0
18.07.2018 02:00:00 12,9 11,6 - - 0 0 N 1018,1 19 0 0,0
18.07.2018 01:00:00 13,9 12,6 - - 8 4 N 1018,1 12 - 0,0
18.07.2018 00:00:00 15,6 13,8 - - 8 4 WZW 1018,1 14 0 0,0
17.07.2018 23:00:00 15,9 13,9 - - 11 6 WZW 1018,1 10 0 0,0
17.07.2018 22:00:00 16,4 13,1 - - 15 8 WZW 1017,9 10 0 0,0
17.07.2018 21:00:00 17,3 12,9 - - 13 7 WZW 1017,6 10 0 0,0
17.07.2018 20:00:00 18,6 12,0 - - 16 9 WZW 1017,4 10 54 0,0
17.07.2018 19:00:00 19,9 12,2 - - 21 11 WZW 1017,2 10 54 0,0
17.07.2018 18:00:00 21,0 12,3 - - 18 10 WZW 1017,2 10 30 0,0
17.07.2018 17:00:00 22,0 11,2 - - 24 13 WZW 1017,0 10 54 0,0
17.07.2018 16:00:00 22,0 11,4 - - 26 14 ZW 1017,1 10 18 0,0
17.07.2018 15:00:00 21,5 11,3 - - 21 11 ZW 1017,1 10 0 0,0
17.07.2018 14:00:00 21,5 11,0 - - 22 12 WZW 1017,0 10 18 0,0
17.07.2018 13:00:00 20,9 11,4 - - 22 12 ZW 1017,1 10 6 0,0
17.07.2018 12:00:00 21,5 10,7 - - 21 11 W 1017,1 10 6 0,0
17.07.2018 11:00:00 21,2 11,8 - - 15 8 W 1016,9 10 18 0,0
17.07.2018 10:00:00 19,5 11,0 22,2 18,4 15 8 W 1017,0 10 36 0,0
17.07.2018 09:00:00 18,6 12,4 - - 11 6 WZW 1016,9 10 0 0,0
17.07.2018 08:00:00 17,1 12,4 - - 15 8 W 1016,7 10 24 0,0
17.07.2018 07:00:00 15,5 13,2 - - 9 5 W 1016,5 10 30 0,0
17.07.2018 06:00:00 11,2 9,3 - - 4 2 W 1016,2 10 6 0,0
17.07.2018 05:00:00 11,3 10,0 - - 2 1 WNW 1015,9 13 0 0,0
17.07.2018 04:00:00 11,4 9,8 - - 8 4 W 1015,8 14 0 0,0
17.07.2018 03:00:00 11,9 9,8 - - 8 4 W 1015,8 14 0 0,0
17.07.2018 02:00:00 12,0 9,2 - - 11 6 W 1015,8 16 0 0,0
17.07.2018 01:00:00 12,2 8,3 - - 11 6 W 1015,9 16 - 0,0
17.07.2018 00:00:00 14,9 9,5 - - 11 6 WNW 1015,9 10 0 0,0
16.07.2018 23:00:00 16,1 10,5 - - 16 9 NW 1015,7 17 0 0,0
16.07.2018 22:00:00 17,9 11,9 - - 15 8 NW 1015,0 10 0 0,0
16.07.2018 21:00:00 19,8 15,1 - - 15 8 NW 1014,0 10 36 0,0
16.07.2018 20:00:00 22,3 15,8 - - 15 8 WNW 1013,4 10 18 0,0
16.07.2018 19:00:00 22,9 15,4 - - 18 10 WZW 1013,2 10 54 0,0
16.07.2018 18:00:00 24,2 14,2 - - 21 11 WZW 1013,1 10 60 0,0
16.07.2018 17:00:00 25,0 13,4 - - 21 11 ZW 1013,3 10 60 0,0
16.07.2018 16:00:00 24,9 11,9 - - 18 10 ZW 1013,5 10 60 0,0
16.07.2018 15:00:00 26,3 10,7 - - 21 11 WZW 1013,8 10 42 0,0
16.07.2018 14:00:00 24,6 10,6 - - 16 9 ZW 1014,0 10 0 0,0
16.07.2018 13:00:00 23,6 12,3 - - 11 6 ZW 1014,3 10 0 0,0
16.07.2018 12:00:00 22,8 12,0 - - 16 9 ZZW 1014,3 10 18 0,0
16.07.2018 11:00:00 25,2 12,6 - - 15 8 Z 1014,2 10 54 0,0
16.07.2018 10:00:00 23,5 12,1 22,2 18,4 8 4 - 1014,2 10 54 0,0
16.07.2018 09:00:00 21,1 11,8 - - 2 1 - 1014,3 10 54 0,0
16.07.2018 08:00:00 18,2 12,1 - - 2 1 - 1014,4 10 60 0,0
16.07.2018 07:00:00 14,4 11,5 - - 2 1 NNO 1014,5 10 60 0,0
16.07.2018 06:00:00 11,0 9,7 - - 4 2 N 1014,7 10 6 0,0
16.07.2018 05:00:00 11,1 9,3 - - 4 2 N 1014,9 12 0 0,0
16.07.2018 04:00:00 12,4 10,3 - - 2 1 NW 1014,8 16 0 0,0
16.07.2018 03:00:00 12,7 9,9 - - 4 2 N 1014,9 18 0 0,0
16.07.2018 02:00:00 14,2 10,8 - - 2 1 NW 1015,1 16 0 0,0
16.07.2018 01:00:00 15,3 11,3 - - 2 1 W 1015,5 15 - 0,0
16.07.2018 00:00:00 15,9 11,0 - - 8 4 WNW 1015,6 16 0 0,0
15.07.2018 23:00:00 16,4 11,1 - - 11 6 W 1015,6 10 0 0,0
15.07.2018 22:00:00 18,8 11,2 - - 15 8 W 1015,4 10 0 0,0
15.07.2018 21:00:00 21,7 11,7 - - 15 8 W 1014,9 10 60 0,0
15.07.2018 20:00:00 24,1 11,8 - - 16 9 W 1014,6 10 60 0,0
15.07.2018 19:00:00 25,2 10,8 - - 18 10 WZW 1014,4 10 60 0,0
15.07.2018 18:00:00 26,3 10,7 - - 18 10 ZW 1014,7 10 60 0,0
15.07.2018 17:00:00 26,8 11,8 - - 16 9 ZW 1015,0 10 60 0,0
15.07.2018 16:00:00 27,2 12,6 - - 16 9 ZW 1015,3 10 60 0,0
15.07.2018 15:00:00 26,2 12,2 - - 21 11 ZW 1015,6 10 60 0,0
15.07.2018 14:00:00 26,4 12,9 - - 21 11 Z 1015,9 10 60 0,0
15.07.2018 13:00:00 24,8 12,3 - - 16 9 Z 1016,4 10 60 0,0
15.07.2018 12:00:00 25,1 12,7 - - 9 5 WZW 1016,8 10 60 0,0
15.07.2018 11:00:00 24,1 11,6 - - 9 5 WZW 1017,1 10 60 0,0
15.07.2018 10:00:00 22,8 13,2 22,2 18,2 8 4 - 1017,3 10 60 0,0
15.07.2018 09:00:00 20,3 14,6 - - 5 3 - 1017,7 10 60 0,0
15.07.2018 08:00:00 17,3 14,2 - - 0 0 N 1017,9 10 60 0,0
15.07.2018 07:00:00 13,4 12,4 - - 4 2 - 1017,8 10 60 0,0
15.07.2018 06:00:00 10,4 9,1 - - 4 2 N 1017,7 10 6 0,0
15.07.2018 05:00:00 10,5 9,6 - - 2 1 NNO 1017,8 8 0 0,0
15.07.2018 04:00:00 11,6 10,0 - - 4 2 N 1018,0 12 0 0,0
15.07.2018 03:00:00 12,3 10,5 - - 2 1 NNW 1018,2 16 0 0,0
15.07.2018 02:00:00 13,5 11,6 - - 4 2 WNW 1018,4 15 0 0,0
15.07.2018 01:00:00 14,1 11,3 - - 2 1 WNW 1018,5 17 - 0,0
15.07.2018 00:00:00 14,6 11,9 - - 8 4 WNW 1018,7 10 0 0,0
14.07.2018 23:00:00 15,6 11,9 - - 8 4 WNW 1018,7 10 0 0,0
14.07.2018 22:00:00 16,9 12,1 - - 8 4 W 1018,7 10 0 0,0
14.07.2018 21:00:00 19,0 11,8 - - 8 4 W 1018,5 10 48 0,0

tt = temperatuur
td = dauwpunt
tt -20cm = temperatuur -20cm
tt -100cm = temperatuur -100cm
ff = windsnelheid
dd = windrichting
ppp = luchtdruk
vv = zicht
sd = Zonneschijnduur
rr = neerslag

Weerstations in de omgeving